When you browse on this site, cookies collect data to enhance your experience and personalize the content and advertising you see.
Visit our Privacy Policy to learn more. By continuing to use the site, you agree to this use of cookies and data.
  • Em Portugal
  • Lista de países
  • Para 7 dias
  • Temperatura da água
  • Mapas de satélite
  • Mapa do tempo
  • Widgets de tempo
  • user-avatar
    Iniciar Sessão

    Previsão horária em Zaborow

    Hoje, 18 Fevereiro, Segunda-feira

    Tempo Temperatura Precipitação Vento Pressão Humidade
    00:00 +3°C° 0 mm 2 m/s 748 mmHg 88%
    01:00 +4°C° 0 mm 1 m/s 748 mmHg 89%
    02:00 +3°C° 0 mm 1 m/s 748 mmHg 89%
    03:00 +3°C° 0 mm 1 m/s 748 mmHg 89%
    04:00 +3°C° 0 mm 1 m/s 747 mmHg 89%
    05:00 +3°C° 0 mm 1 m/s 747 mmHg 89%
    06:00 +3°C° 0 mm 1 m/s 747 mmHg 89%
    07:00 +3°C° 0 mm 1 m/s 747 mmHg 88%
    08:00 +4°C° 0 mm 1 m/s 747 mmHg 81%
    09:00 +6°C° 0 mm 1 m/s 747 mmHg 75%
    10:00 +6°C° 0 mm 2 m/s 747 mmHg 68%
    11:00 +7°C° 0 mm 2 m/s 747 mmHg 64%
    12:00 +9°C° 0 mm 2 m/s 747 mmHg 60%
    13:00 +12°C° 0 mm 2 m/s 747 mmHg 55%
    14:00 +10°C° 0 mm 2 m/s 746 mmHg 60%
    15:00 +9°C° 0 mm 2 m/s 746 mmHg 64%
    16:00 +9°C° 0 mm 2 m/s 746 mmHg 68%
    17:00 +7°C° 0 mm 2 m/s 746 mmHg 74%
    18:00 +6°C° 0 mm 2 m/s 746 mmHg 80%
    19:00 +4°C° 0 mm 2 m/s 746 mmHg 86%
    20:00 +4°C° 0 mm 2 m/s 746 mmHg 87%
    21:00 +3°C° 0 mm 2 m/s 746 mmHg 87%
    22:00 +3°C° 0 mm 2 m/s 745 mmHg 88%
    23:00 +3°C° 0 mm 2 m/s 745 mmHg 88%

    Amanhã, 19 Fevereiro, Terça-feira

    Tempo Temperatura Precipitação Vento Pressão Humidade
    00:00 +2°C° 0 mm 3 m/s 745 mmHg 88%
    01:00 +1°C° 0 mm 3 m/s 745 mmHg 88%
    02:00 +1°C° 0 mm 3 m/s 745 mmHg 89%
    03:00 +1°C° 0 mm 3 m/s 745 mmHg 89%
    04:00 +1°C° 0 mm 3 m/s 745 mmHg 90%
    05:00 +1°C° 0 mm 3 m/s 744 mmHg 90%
    06:00 0°C° 0 mm 4 m/s 744 mmHg 90%
    07:00 0°C° 0 mm 4 m/s 744 mmHg 90%
    08:00 +3°C° 0 mm 4 m/s 744 mmHg 83%
    09:00 +3°C° 0 mm 5 m/s 744 mmHg 77%
    10:00 +6°C° 0 mm 5 m/s 743 mmHg 71%
    11:00 +7°C° 0 mm 5 m/s 743 mmHg 67%
    12:00 +8°C° 0 mm 5 m/s 743 mmHg 64%
    13:00 +9°C° 0 mm 5 m/s 742 mmHg 61%
    14:00 +8°C° 0 mm 5 m/s 742 mmHg 63%
    15:00 +8°C° 0 mm 5 m/s 742 mmHg 65%
    16:00 +8°C° 0 mm 4 m/s 742 mmHg 68%
    17:00 +6°C° 0 mm 4 m/s 742 mmHg 72%
    18:00 +5°C° 0 mm 5 m/s 742 mmHg 76%
    19:00 +3°C° 0 mm 5 m/s 742 mmHg 80%
    20:00 +4°C° 0 mm 4 m/s 742 mmHg 82%
    21:00 +3°C° 0 mm 4 m/s 742 mmHg 84%
    22:00 +3°C° 0 mm 4 m/s 742 mmHg 86%
    23:00 +3°C° 0 mm 3 m/s 742 mmHg 85%

    Depois de amanhã, 20 Fevereiro, Quarta-feira

    Tempo Temperatura Precipitação Vento Pressão Humidade
    00:00 +3°C° 0 mm 3 m/s 742 mmHg 85%
    01:00 +2°C° 0 mm 3 m/s 742 mmHg 84%
    02:00 +3°C° 0.3 mm 4 m/s 742 mmHg 85%
    03:00 +3°C° 0.3 mm 4 m/s 742 mmHg 87%
    04:00 +4°C° 0.3 mm 4 m/s 742 mmHg 88%
    05:00 +3°C° 0 mm 4 m/s 742 mmHg 89%
    06:00 +3°C° 0 mm 4 m/s 742 mmHg 91%
    07:00 +1°C° 0 mm 5 m/s 743 mmHg 92%
    08:00 +2°C° 0.1 mm 5 m/s 743 mmHg 88%
    09:00 +3°C° 0.1 mm 6 m/s 743 mmHg 83%
    10:00 +4°C° 0.1 mm 7 m/s 744 mmHg 78%
    11:00 +4°C° 0.1 mm 7 m/s 744 mmHg 74%
    12:00 +4°C° 0.1 mm 7 m/s 744 mmHg 70%
    13:00 +4°C° 0.1 mm 7 m/s 744 mmHg 66%
    14:00 +4°C° 0.1 mm 6 m/s 744 mmHg 67%
    15:00 +4°C° 0.1 mm 6 m/s 744 mmHg 68%
    16:00 +5°C° 0.1 mm 5 m/s 744 mmHg 69%
    17:00 +3°C° 0.1 mm 5 m/s 745 mmHg 72%
    18:00 +3°C° 0.1 mm 5 m/s 745 mmHg 75%
    19:00 +4°C° 0.1 mm 4 m/s 746 mmHg 77%
    20:00 +4°C° 0.1 mm 4 m/s 746 mmHg 78%
    21:00 +3°C° 0.1 mm 4 m/s 746 mmHg 78%
    22:00 +3°C° 0.1 mm 4 m/s 746 mmHg 79%
    23:00 +3°C° 0 mm 4 m/s 746 mmHg 80%

    21 Fevereiro, Quinta-feira

    Tempo Temperatura Precipitação Vento Pressão Humidade
    00:00 +3°C° 0 mm 4 m/s 746 mmHg 81%
    01:00 +3°C° 0 mm 4 m/s 746 mmHg 82%
    02:00 +3°C° 0 mm 4 m/s 746 mmHg 82%
    03:00 +3°C° 0 mm 4 m/s 746 mmHg 82%
    04:00 +3°C° 0 mm 4 m/s 746 mmHg 82%
    05:00 +3°C° 0 mm 4 m/s 746 mmHg 81%
    06:00 +3°C° 0 mm 4 m/s 746 mmHg 80%
    07:00 +3°C° 0 mm 4 m/s 746 mmHg 79%
    08:00 +3°C° 0.1 mm 5 m/s 746 mmHg 76%
    09:00 +3°C° 0.1 mm 5 m/s 746 mmHg 73%
    10:00 +5°C° 0.1 mm 5 m/s 746 mmHg 71%
    11:00 +5°C° 0.4 mm 5 m/s 746 mmHg 72%
    12:00 +5°C° 0.4 mm 5 m/s 745 mmHg 73%
    13:00 +5°C° 0.4 mm 5 m/s 745 mmHg 74%
    14:00 +5°C° 0.6 mm 5 m/s 745 mmHg 78%
    15:00 +5°C° 0.6 mm 5 m/s 745 mmHg 82%
    16:00 +3°C° 0.6 mm 5 m/s 744 mmHg 86%
    17:00 +5°C° 0.9 mm 5 m/s 744 mmHg 87%
    18:00 +4°C° 0.9 mm 6 m/s 744 mmHg 87%
    19:00 +4°C° 0.9 mm 6 m/s 745 mmHg 88%
    20:00 +4°C° 0.2 mm 6 m/s 745 mmHg 89%
    21:00 +4°C° 0.2 mm 6 m/s 745 mmHg 89%
    22:00 +4°C° 0.2 mm 7 m/s 745 mmHg 90%
    23:00 +4°C° 0.3 mm 6 m/s 745 mmHg 91%

    22 Fevereiro, Sexta-feira

    Tempo Temperatura Precipitação Vento Pressão Humidade
    00:00 +4°C° 0.3 mm 6 m/s 745 mmHg 91%
    01:00 +5°C° 0.3 mm 5 m/s 745 mmHg 92%
    02:00 +4°C° 0.6 mm 6 m/s 745 mmHg 91%
    03:00 +3°C° 0.6 mm 6 m/s 746 mmHg 90%
    04:00 +3°C° 0.6 mm 7 m/s 746 mmHg 90%
    05:00 0°C° 0.1 mm 7 m/s 747 mmHg 87%
    06:00 -1°C° 0.1 mm 7 m/s 748 mmHg 84%
    07:00 -3°C° 0.1 mm 7 m/s 749 mmHg 81%
    08:00 -3°C° 0 mm 6 m/s 750 mmHg 76%
    09:00 -3°C° 0 mm 6 m/s 751 mmHg 71%
    10:00 -3°C° 0 mm 6 m/s 753 mmHg 66%
    11:00 -3°C° 0 mm 6 m/s 753 mmHg 62%
    12:00 -2°C° 0 mm 6 m/s 754 mmHg 59%
    13:00 -2°C° 0 mm 6 m/s 754 mmHg 55%
    14:00 -2°C° 0 mm 6 m/s 755 mmHg 55%
    15:00 -3°C° 0 mm 6 m/s 755 mmHg 55%
    16:00 -3°C° 0 mm 6 m/s 756 mmHg 56%
    17:00 -4°C° 0 mm 5 m/s 756 mmHg 57%
    18:00 -5°C° 0 mm 5 m/s 757 mmHg 58%
    19:00 -5°C° 0 mm 4 m/s 758 mmHg 59%
    20:00 -5°C° 0 mm 4 m/s 759 mmHg 56%
    21:00 -5°C° 0 mm 3 m/s 759 mmHg 54%
    22:00 -5°C° 0 mm 3 m/s 759 mmHg 51%
    23:00 -5°C° 0 mm 3 m/s 760 mmHg 50%

    23 Fevereiro, Sábado

    Tempo Temperatura Precipitação Vento Pressão Humidade
    00:00 -5°C° 0 mm 3 m/s 760 mmHg 48%
    01:00 -4°C° 0 mm 2 m/s 761 mmHg 47%
    02:00 -4°C° 0 mm 2 m/s 760 mmHg 46%
    03:00 -4°C° 0 mm 2 m/s 760 mmHg 46%
    04:00 -4°C° 0 mm 2 m/s 760 mmHg 46%
    05:00 -4°C° 0 mm 2 m/s 760 mmHg 47%
    06:00 -4°C° 0 mm 2 m/s 760 mmHg 47%
    07:00 -4°C° 0 mm 2 m/s 760 mmHg 48%
    08:00 -3°C° 0 mm 2 m/s 760 mmHg 43%
    09:00 -2°C° 0 mm 2 m/s 760 mmHg 38%
    10:00 -1°C° 0 mm 2 m/s 759 mmHg 32%
    11:00 -1°C° 0 mm 2 m/s 759 mmHg 31%
    12:00 -1°C° 0 mm 2 m/s 758 mmHg 30%
    13:00 +1°C° 0 mm 2 m/s 758 mmHg 29%
    14:00 +1°C° 0 mm 2 m/s 757 mmHg 31%
    15:00 +1°C° 0 mm 2 m/s 757 mmHg 33%
    16:00 +1°C° 0 mm 2 m/s 756 mmHg 35%
    17:00 +1°C° 0 mm 2 m/s 756 mmHg 37%
    18:00 +1°C° 0 mm 2 m/s 756 mmHg 39%
    19:00 -1°C° 0 mm 2 m/s 755 mmHg 41%
    20:00 +1°C° 0 mm 2 m/s 755 mmHg 43%
    21:00 +1°C° 0 mm 2 m/s 755 mmHg 45%
    22:00 +1°C° 0 mm 2 m/s 755 mmHg 47%
    23:00 +1°C° 0 mm 2 m/s 755 mmHg 51%
    Mostrar mais